Location: ????????
(55.8351°N, 38.7040°E)
Time: 13:02:41
(UTC+00:00)

Lacrosse 5 - Pass Details

Date: 14 April 2024
Orbit: 714 x 724 km, 57.0° (Epoch: 09 March)

Event Time Altitude Azimuth Distance (km) Brightness Sun altitude
Exits shadow 00:05:37 29° 225° (SW) 1,303 2.6 -16.7°
Maximum altitude 00:08:07 65° 153° (SSE) 798 2.0 -16.5°
Drops below altitude 10° 00:13:12 10° 72° (ENE) 2,222 5.3 -16.0°
Sets 00:15:36 0° 70° (ENE) 3,145 6.4 -15.7°
